Погода в Головине

Россия / Владимирская область     55°58′02″N   38°46′34″E
темп.,
°C
ветер,
м/с
пор.,
м/с
влажн.,
%
обл.,
%
осадки,
мм/ч
давл.,
гПа
погр.,
м
20 июня, вс
вс2000:00+17юз24905 0.0 102362
03:00+16зюз22911 0.0 102419
06:00+19зюз12800 0.0 102392
09:00+24юз23580 0.0 1023607
12:00+28ююз33440 0.0 10221431
15:00+29ююз33380 0.0 10211551
18:00+28юз35530 0.0 1021668
21:00+21ююз37850 0.0 1021125
21 июня, пн
пн2100:00+19ююз26935 0.0 1021111
03:00+17юз239143 0.0 102249
06:00+19ююз1382100 0.0 102297
09:00+24ююз2361100 0.0 1022556
12:00+27ююз224694 0.0 10211179
15:00+30ю233848 0.0 10201776
18:00+28ююз345083 0.0 1020512
21:00+21ююз228198 0.0 102031
22 июня, вт
вт2200:00+19ю1193100 0.0 102111
03:00+18ююв119556 0.0 102211
06:00+20ююв1188100 0.0 102290
09:00+26ююв23635 0.0 1022671
12:00+30ю34455 0.0 10211566
15:00+31ююз34385 0.0 10201876
18:00+29ююз34524 0.0 1020735
21:00+23ююз24790 0.0 102072
23 июня, ср
ср2300:00+21ююз23910 0.0 102161
03:00+19юз12950 0.0 102213
06:00+22юз12850 0.0 102298
09:00+27ююз22600 0.0 1022655
12:00+32ююз22404 0.0 10211495
15:00+33ююз22320 0.0 10202118
18:00+31юз244610 0.0 1020303
21:00+23юз357142 0.0 102077
24 июня, чт
чт2400:00+21зюз22763 0.0 102127
03:00+20з11855 0.0 102111
06:00+23зюз12780 0.0 102188
09:00+28юз22540 0.0 1021525
12:00+32ююз23390 0.0 10201683
15:00+33ююз22310 0.0 10192182
18:00+31юз35450 0.0 1018472
21:00+24юз24740 0.0 101863